Date String (YYYY-MM-DD hh:mm:ss) UTC,Instrument flags,absolute air pressure of the measurement (hPa),sample flow rate (lpm),inlet stack bypass flow (lpm),air temperature of the measurement (°C),ambient temperature measured by the external sensor (°C),aerosol sample conditioner tube jacket temperature (°C),OPC LED temperature (°C),internal box temperature (°C),relative humidity of the measurement (%),span deviation,mass concentration of particles derived from Lorenz-Mie calculation of OPC scattering (μg/m³),mass concentration of particles derived from Lorenz-Mie calculation of OPC scattering (μg/m³),mass concentration of particles derived from Lorenz-Mie calculation of OPC scattering (μg/m³)
DateTimeUTC,F1_M11,P_M11,Q1_M11,Q2_M11,T1_M11,T2_M11,T3_M11,T4_M11,T5_M11,U1_M11,ZSPAN_M11,X0_M11,X2_M11,X1_M11
2023-10-25 23:00:00,SystemResetWarning,0823.8,5.00,000.00,028.8,027.3,000.0,037.2,030.6,22.7,-002.6,0031.73,0017.52,0015.18
2023-10-25 23:01:00,SystemResetWarning,0823.8,5.01,000.00,028.8,027.5,000.0,037.2,030.7,22.6,-002.7,0032.59,0017.49,0015.21
2023-10-25 23:02:00,SystemResetWarning,0823.8,5.00,000.00,028.9,027.7,000.0,037.2,030.7,22.5,-002.8,0033.93,0017.45,0015.23
2023-10-25 23:03:00,SystemResetWarning,0823.8,5.01,000.00,028.9,027.8,000.0,037.2,030.8,22.5,-002.8,0034.47,0017.50,0015.24
2023-10-25 23:04:00,SystemResetWarning,0823.8,5.00,000.00,029.0,027.9,000.0,037.2,030.8,22.4,-002.9,0034.76,0017.57,0015.28
2023-10-25 23:05:00,SystemResetWarning,0823.9,4.99,000.00,029.0,027.8,000.0,037.3,030.9,22.4,-003.0,0035.03,0017.60,0015.28
2023-10-25 23:06:00,SystemResetWarning,0823.8,4.99,000.00,029.0,026.0,000.0,037.2,030.7,22.3,-003.1,0034.21,0017.57,0015.28
2023-10-25 23:07:00,SystemResetWarning,0823.8,5.00,000.00,028.9,024.3,000.0,037.2,030.4,22.4,-003.0,0033.93,0017.53,0015.27
2023-10-25 23:08:00,SystemResetWarning,0823.8,5.01,000.00,028.8,024.1,000.0,037.1,030.2,22.6,-003.0,0032.63,0017.55,0015.26
2023-10-25 23:09:00,SystemResetWarning,0823.7,5.00,000.00,028.6,024.4,000.0,037.1,030.0,22.7,-003.0,0033.38,0017.57,0015.23
2023-10-25 23:10:00,SystemResetWarning,0823.8,4.99,000.00,028.6,024.9,000.0,037.1,030.0,22.9,-003.0,0032.48,0017.57,0015.21
2023-10-25 23:11:00,SystemResetWarning,0823.8,5.00,000.00,028.5,025.4,000.0,037.1,030.1,23.0,-002.9,0031.61,0017.58,0015.18
2023-10-25 23:12:00,SystemResetWarning,0823.8,5.00,000.00,028.5,025.8,000.0,037.0,030.2,23.0,-003.0,0031.19,0017.48,0015.13
2023-10-25 23:13:00,SystemResetWarning,0823.8,5.01,000.00,028.5,026.2,000.0,037.0,030.2,23.0,-002.8,0029.67,0017.32,0015.06
2023-10-25 23:14:00,SystemResetWarning,0823.8,5.00,000.00,028.6,026.6,000.0,037.0,030.3,22.9,-002.6,0029.93,0017.23,0015.02
2023-10-25 23:15:00,SystemResetWarning,0823.8,5.00,000.00,028.6,026.9,000.0,037.0,030.4,22.8,-002.7,0029.61,0017.10,0014.96
2023-10-25 23:16:00,SystemResetWarning,0823.8,5.00,000.00,028.6,027.1,000.0,037.0,030.5,22.8,-002.6,0028.88,0017.08,0014.94
2023-10-25 23:17:00,SystemResetWarning,0823.8,5.00,000.00,028.7,027.3,000.0,037.0,030.5,22.7,-002.6,0028.83,0017.03,0014.90
2023-10-25 23:18:00,SystemResetWarning,0823.8,5.00,000.00,028.7,027.5,000.0,037.1,030.6,22.6,-002.5,0029.82,0017.06,0014.87
2023-10-25 23:19:00,SystemResetWarning,0823.8,5.00,000.00,028.8,027.7,000.0,037.1,030.7,22.5,-002.4,0029.51,0017.06,0014.88
2023-10-25 23:20:00,SystemResetWarning,0823.8,5.00,000.00,028.8,027.8,000.0,037.1,030.7,22.5,-002.4,0028.59,0017.03,0014.89
2023-10-25 23:21:00,SystemResetWarning,0823.9,5.01,000.00,028.9,027.9,000.0,037.1,030.8,22.5,-002.1,0028.44,0017.02,0014.86
2023-10-25 23:22:00,SystemResetWarning,0823.9,5.00,000.00,028.9,028.0,000.0,037.2,030.8,22.4,-002.3,0028.59,0017.00,0014.85
2023-10-25 23:23:00,SystemResetWarning,0823.9,4.99,000.00,029.0,027.2,000.0,037.2,030.8,22.3,-002.3,0028.89,0017.01,0014.85
2023-10-25 23:24:00,SystemResetWarning,0823.8,5.00,000.00,028.9,025.0,000.0,037.1,030.5,22.4,-002.5,0029.63,0017.10,0014.86
2023-10-25 23:25:00,SystemResetWarning,0823.8,5.01,000.00,028.7,024.0,000.0,037.1,030.2,22.5,-002.6,0029.89,0017.10,0014.83
2023-10-25 23:26:00,SystemResetWarning,0823.8,5.01,000.00,028.6,024.1,000.0,037.1,030.0,22.7,-002.5,0030.45,0017.07,0014.82
2023-10-25 23:27:00,SystemResetWarning,0823.8,5.00,000.00,028.5,024.5,000.0,037.0,029.9,22.9,-002.2,0030.91,0017.04,0014.78
2023-10-25 23:28:00,SystemResetWarning,0823.8,4.99,000.00,028.4,025.0,000.0,037.0,029.9,23.0,-002.2,0031.19,0017.07,0014.75
2023-10-25 23:29:00,SystemResetWarning,0823.8,4.99,000.00,028.4,025.5,000.0,037.0,030.0,23.0,-002.2,0030.37,0017.02,0014.73
2023-10-25 23:30:00,SystemResetWarning,0823.8,5.00,000.00,028.4,025.9,000.0,037.0,030.1,23.0,-002.2,0030.91,0016.98,0014.70
2023-10-25 23:31:00,SystemResetWarning,0823.8,5.02,000.00,028.5,026.3,000.0,037.0,030.2,23.0,-002.2,0030.91,0017.00,0014.67
2023-10-25 23:32:00,SystemResetWarning,0823.9,5.01,000.00,028.5,026.7,000.0,036.9,030.3,22.9,-002.4,0031.13,0017.00,0014.66
2023-10-25 23:33:00,SystemResetWarning,0823.9,4.99,000.00,028.5,026.9,000.0,037.0,030.3,22.9,-002.3,0030.94,0016.96,0014.64
2023-10-25 23:34:00,SystemResetWarning,0823.9,5.00,000.00,028.6,027.2,000.0,037.0,030.4,22.8,-002.3,0030.72,0016.90,0014.61
2023-10-25 23:35:00,SystemResetWarning,0823.9,5.00,000.00,028.6,027.4,000.0,037.0,030.5,22.8,-002.3,0030.70,0016.89,0014.59
2023-10-25 23:36:00,SystemResetWarning,0823.9,5.00,000.00,028.7,027.5,000.0,037.0,030.6,22.9,-002.2,0029.50,0016.86,0014.56
2023-10-25 23:37:00,SystemResetWarning,0823.9,5.01,000.00,028.7,027.7,000.0,037.0,030.6,22.9,-002.3,0028.96,0016.83,0014.55
2023-10-25 23:38:00,SystemResetWarning,0824.0,5.00,000.00,028.8,027.8,000.0,037.0,030.7,22.7,-002.5,0028.97,0016.75,0014.54
2023-10-25 23:39:00,SystemResetWarning,0823.9,5.01,000.00,028.8,027.9,000.0,037.1,030.7,22.7,-002.5,0029.67,0016.74,0014.52
2023-10-25 23:40:00,SystemResetWarning,0823.9,5.01,000.00,028.9,028.0,000.0,037.1,030.8,22.6,-002.4,0030.83,0016.77,0014.48
2023-10-25 23:41:00,SystemResetWarning,0823.9,4.99,000.00,028.9,028.0,000.0,037.1,030.8,22.6,-002.5,0030.46,0016.74,0014.43
2023-10-25 23:42:00,SystemResetWarning,0823.8,4.98,000.00,028.9,026.5,000.0,037.1,030.7,22.6,-002.6,0030.86,0016.70,0014.41
2023-10-25 23:43:00,SystemResetWarning,0823.8,5.01,000.00,028.9,025.1,000.0,037.1,030.5,22.7,-002.6,0031.95,0016.69,0014.39
2023-10-25 23:44:00,SystemResetWarning,0823.8,5.02,000.00,028.8,025.0,000.0,037.1,030.3,22.8,-002.8,0031.99,0016.68,0014.38
2023-10-25 23:45:00,SystemResetWarning,0823.8,4.99,000.00,028.7,025.3,000.0,037.1,030.2,23.0,-002.8,0032.76,0016.71,0014.36
2023-10-25 23:46:00,SystemResetWarning,0823.8,5.00,000.00,028.6,025.7,000.0,037.1,030.2,23.0,-002.8,0032.91,0016.65,0014.32
2023-10-25 23:47:00,SystemResetWarning,0823.9,5.00,000.00,028.6,026.1,000.0,037.1,030.2,23.0,-002.9,0032.73,0016.65,0014.32
2023-10-25 23:48:00,SystemResetWarning,0823.9,5.01,000.00,028.6,026.4,000.0,037.1,030.3,22.9,-002.7,0033.00,0016.64,0014.29
2023-10-25 23:49:00,SystemResetWarning,0823.9,5.00,000.00,028.7,026.8,000.0,037.1,030.4,22.9,-002.8,0033.54,0016.71,0014.27
2023-10-25 23:50:00,SystemResetWarning,0823.9,4.99,000.00,028.7,027.0,000.0,037.1,030.5,23.0,-002.7,0032.76,0016.68,0014.27
2023-10-25 23:51:00,SystemResetWarning,0823.9,4.99,000.00,028.7,027.3,000.0,037.1,030.5,23.0,-002.9,0031.36,0016.64,0014.26
2023-10-25 23:52:00,SystemResetWarning,0823.9,5.00,000.00,028.8,027.5,000.0,037.1,030.6,23.0,-002.8,0031.42,0016.72,0014.28
2023-10-25 23:53:00,SystemResetWarning,0824.0,5.01,000.00,028.8,027.6,000.0,037.1,030.7,23.0,-002.8,0031.71,0016.71,0014.27
2023-10-25 23:54:00,SystemResetWarning,0824.0,5.00,000.00,028.9,027.8,000.0,037.1,030.7,23.0,-003.0,0030.09,0016.61,0014.24
2023-10-25 23:55:00,SystemResetWarning,0824.0,5.00,000.00,028.9,027.9,000.0,037.2,030.8,22.9,-002.9,0029.84,0016.53,0014.19
2023-10-25 23:56:00,SystemResetWarning,0824.0,5.00,000.00,029.0,028.0,000.0,037.2,030.8,22.9,-002.7,0029.61,0016.51,0014.18
2023-10-25 23:57:00,SystemResetWarning,0824.0,4.98,000.00,029.0,027.4,000.0,037.2,030.8,22.9,-002.6,0029.44,0016.56,0014.22
2023-10-25 23:58:00,SystemResetWarning,0824.0,5.00,000.00,028.9,025.6,000.0,037.2,030.6,22.9,-002.3,0030.35,0016.51,0014.21
2023-10-25 23:59:00,SystemResetWarning,0824.0,5.00,000.00,028.9,025.0,000.0,037.1,030.4,23.1,-002.6,0030.84,0016.49,0014.20
